Location: Newark
(35.8833°N, 14.5000°E)
Time: 20:48:24
(UTC+00:00)

Altair - Pass Details

Date: 22 November 2019
Orbit: 1502 x 1682 km, 47.2° (Epoch: 12 December)

Event Time Altitude Azimuth Distance (km) Brightness Sun altitude
Rises 06:57:20 0° 303° (WNW) 4,646 9.4 11.9°
Reaches altitude 10° 07:00:20 10° 304° (NW) 3,674 8.9 12.4°
Maximum altitude 07:09:38 84° 34° (NNE) 1,554 7.8 13.9°
Drops below altitude 10° 07:19:15 10° 123° (ESE) 3,787 12.1 15.4°
Sets 07:22:23 0° 124° (SE) 4,795 11.9 15.9°
